Location: Limerick
(52.6800°N, 8.6400°W)
Time: 16:55:54
(UTC+01:00)

Amateur Radio Satellites - All Passes

Search period start: 30 August 2015 16:25
Search period end: 31 August 2015 16:25
Location: Limerick, 52.6800°N, 8.6400°W

Satellite Date Start Highest point End Downlink Frequencies (MHz)
Time Altitude Azimuth
SWISSCUBE 30 Aug 16:27:38 16:32:10 44° 294° (WNW) 16:36:39 437.505
CUTE-I 30 Aug 16:32:59 16:34:26 11° 45° (NE) 16:36:04 437.470
GONETS M04 30 Aug 16:59:33 17:06:35 27° 281° (WNW) 17:13:23
ITUPSAT 1 30 Aug 17:05:41 17:09:38 26° 300° (WNW) 17:13:29 437.325
BEESAT 3 30 Aug 17:06:26 17:10:29 67° 129° (SE) 17:14:34 437.485
Cosmos 2499 30 Aug 17:06:40 17:15:24 66° 266° (W) 17:23:35 435.465 / 435.565
BEESAT 2 30 Aug 17:15:52 17:19:56 64° 129° (SE) 17:24:02 435.950
JAS-2 30 Aug 17:23:29 17:29:44 25° 276° (W) 17:35:51 435.910
Cubesat XI-IV 30 Aug 17:24:01 17:28:09 24° 57° (ENE) 17:32:22 437.490
STARS 30 Aug 17:26:59 17:31:29 88° 286° (WNW) 17:35:56 437.465
AO-7 30 Aug 17:31:26 17:39:13 40° 264° (W) 17:46:56 29.400- 29.500
RS-15 30 Aug 17:35:54 17:46:26 57° 119° (ESE) 17:57:31 29.354- 29.394
AIST 2 30 Aug 17:40:41 17:44:24 30° 121° (ESE) 17:48:09 435.215
BEESAT 30 Aug 17:40:57 17:43:40 15° 307° (NW) 17:46:15 436.000
MOZHAYETS 4 30 Aug 17:41:00 17:45:19 39° 96° (E) 17:49:37
KKS-1 30 Aug 17:41:25 17:45:44 44° 293° (WNW) 17:49:59 437.445
HORYU 2 30 Aug 17:58:31 18:01:30 17° 272° (W) 18:04:22 437.375
CUTE-I 30 Aug 18:08:20 18:13:23 46° 65° (ENE) 18:18:28 437.470
GOMX 1 30 Aug 18:31:45 18:32:58 11° 48° (NE) 18:34:25 467.674
HO-68 30 Aug 18:44:32 18:49:26 21° 43° (NE) 18:54:28 435.675
BEESAT 3 30 Aug 18:45:09 18:48:44 28° 330° (NNW) 18:52:20 437.485
DOVE 4 30 Aug 18:53:19 18:54:46 11° 48° (NE) 18:56:24 437.250
BEESAT 2 30 Aug 18:54:37 18:58:16 29° 330° (NNW) 19:01:56 435.950
Cosmos 2499 30 Aug 19:01:32 19:06:56 18° 289° (WNW) 19:11:48 435.465 / 435.565
Cubesat XI-IV 30 Aug 19:02:29 19:07:49 73° 255° (WSW) 19:13:11 437.490
STARS 30 Aug 19:04:37 19:07:20 16° 305° (NW) 19:09:56 437.465
AIST 1 30 Aug 19:07:08 19:10:37 24° 65° (ENE) 19:14:11
Cosmos 2491 30 Aug 19:14:55 19:21:57 27° 53° (NE) 19:29:11 435.465 / 435.565
MOZHAYETS 4 30 Aug 19:18:24 19:22:28 32° 296° (WNW) 19:26:29
AIST 2 30 Aug 19:18:38 19:22:48 51° 320° (NW) 19:26:58 435.215
O/OREOS (USA 219) 30 Aug 19:21:21 19:23:44 15° 100° (E) 19:26:19 437.305
BRITE-PL 30 Aug 19:28:41 19:32:49 39° 66° (ENE) 19:37:19 437.365/2234.400
CUBESAT XI-V 30 Aug 19:30:00 19:34:30 47° 99° (E) 19:38:59 437.345
COMPASS 1 30 Aug 19:47:22 19:49:10 13° 55° (NE) 19:51:05 437.405
RS-15 30 Aug 19:47:50 19:58:54 65° 327° (NNW) 20:10:31 29.354- 29.394
CUTE-I 30 Aug 19:48:49 19:53:39 34° 265° (W) 19:58:27 437.470
CINEMA 3 30 Aug 19:49:12 19:52:02 16° 54° (NE) 19:55:05 145.822/145.860
AAUSAT CUBESAT 2 30 Aug 19:58:42 20:00:46 14° 56° (NE) 20:02:58 437.432
GOMX 1 30 Aug 20:05:34 20:10:01 52° 69° (ENE) 20:14:50 467.674
CUTE 1.7 + AOD 2 30 Aug 20:17:49 20:21:37 31° 65° (ENE) 20:25:26 437.475
STRAND 1 30 Aug 20:17:59 20:22:45 39° 96° (E) 20:27:32 437.568
BEESAT 3 30 Aug 20:25:20 20:27:51 15° 354° (N) 20:30:20 437.485
DOVE 4 30 Aug 20:26:54 20:31:27 52° 68° (ENE) 20:36:19 437.250
HO-68 30 Aug 20:28:57 20:36:01 65° 65° (ENE) 20:43:09 435.675
CANX-2 30 Aug 20:31:13 20:35:18 44° 69° (ENE) 20:39:25 2200.000
BEESAT 2 30 Aug 20:34:55 20:37:29 16° 353° (N) 20:40:01 435.950
DELFI C3 30 Aug 20:35:49 20:36:21 10° 54° (NE) 20:37:02 145.870
PRISM 30 Aug 20:38:33 20:42:26 40° 98° (E) 20:46:20 437.425
AIST 1 30 Aug 20:44:23 20:48:32 46° 266° (W) 20:52:41
Cubesat XI-IV 30 Aug 20:46:23 20:49:00 13° 277° (W) 20:51:21 437.490
Oscar 11 30 Aug 20:53:31 20:56:49 22° 61° (ENE) 21:00:13 145.826/435.025
SEEDS 30 Aug 20:55:27 20:59:37 55° 71° (ENE) 21:03:47 437.485
O/OREOS (USA 219) 30 Aug 20:57:58 21:02:33 89° 299° (WNW) 21:07:10 437.305
AIST 2 30 Aug 20:59:06 21:02:15 19° 343° (NNW) 21:05:22 435.215
BRITE-PL 30 Aug 21:07:31 21:11:30 31° 268° (W) 21:15:43 437.365/2234.400
CUBESAT XI-V 30 Aug 21:07:48 21:11:46 28° 297° (WNW) 21:15:41 437.345
Cosmos 2491 30 Aug 21:11:32 21:20:20 86° 78° (ENE) 21:29:09 435.465 / 435.565
COMPASS 1 30 Aug 21:19:57 21:24:10 76° 73° (ENE) 21:28:23 437.405
CINEMA 3 30 Aug 21:23:44 21:28:29 80° 74° (ENE) 21:33:28 145.822/145.860
CUBEBUG 2 30 Aug 21:24:55 21:29:20 44° 68° (ENE) 21:33:54 437.445
YUBILEINY 30 Aug 21:27:14 21:35:10 41° 85° (E) 21:43:15 435.215
AAUSAT CUBESAT 2 30 Aug 21:31:34 21:35:46 85° 75° (ENE) 21:39:59 437.432
ZACube-1 30 Aug 21:32:12 21:36:17 33° 64° (ENE) 21:40:27 437.345
UWE-3 30 Aug 21:35:13 21:39:36 44° 67° (ENE) 21:44:04 435.000/436.395/437.385
FUNcube-1 30 Aug 21:38:13 21:42:22 36° 66° (ENE) 21:46:37 145.935
GOMX 1 30 Aug 21:44:41 21:48:31 25° 271° (W) 21:52:31 467.674
CUTE 1.7 + AOD 2 30 Aug 21:53:29 21:57:28 36° 264° (W) 22:01:27 437.475
STRAND 1 30 Aug 21:57:16 22:01:59 39° 296° (WNW) 22:06:41 437.568
RS-15 30 Aug 22:02:51 22:13:39 46° 359° (N) 22:24:59 29.354- 29.394
BEESAT 3 30 Aug 22:04:14 22:07:09 19° 17° (NNE) 22:10:05 437.485
DOVE 4 30 Aug 22:05:37 22:09:33 26° 271° (W) 22:13:37 437.250
DELFI C3 30 Aug 22:06:39 22:10:39 63° 72° (ENE) 22:14:41 145.870
CANX-2 30 Aug 22:07:48 22:11:25 25° 268° (W) 22:14:58 2200.000
BEESAT 2 30 Aug 22:13:59 22:16:55 19° 17° (NNE) 22:19:52 435.950
PRISM 30 Aug 22:14:15 22:17:45 27° 297° (WNW) 22:21:10 437.425
ESTCUBE 1 30 Aug 22:17:08 22:19:44 16° 55° (NE) 22:22:27 437.505/2401.250
HO-68 30 Aug 22:17:50 22:24:17 34° 267° (W) 22:30:40 435.675
DX 1 30 Aug 22:18:40 22:22:17 27° 62° (ENE) 22:25:59 434.975-435.025
Oscar 11 30 Aug 22:28:23 22:32:42 57° 260° (W) 22:37:01 145.826/435.025
HUMSAT D 30 Aug 22:29:38 22:33:47 47° 69° (ENE) 22:37:59 437.325/437.525
SEEDS 30 Aug 22:32:33 22:35:46 20° 271° (W) 22:38:53 437.485
UKube-1 30 Aug 22:33:24 22:37:14 32° 64° (ENE) 22:41:07 .
AISAT 30 Aug 22:34:39 22:38:17 26° 62° (ENE) 22:42:01 437.250
O/OREOS (USA 219) 30 Aug 22:39:16 22:42:40 20° 321° (NW) 22:46:03 437.305
AIST 2 30 Aug 22:39:29 22:42:13 16° 7° (N) 22:44:57 435.215
CUBEBUG 1 30 Aug 22:40:35 22:43:37 19° 59° (ENE) 22:46:46 437.445
50 SAT 30 Aug 22:56:14 22:59:55 39° 68° (ENE) 23:03:39 437.505
COMPASS 1 30 Aug 22:57:57 23:00:24 15° 274° (W) 23:02:43 437.405
CUBEBUG 2 30 Aug 23:02:03 23:06:10 30° 267° (W) 23:10:22 437.445
VELOX 1 30 Aug 23:02:41 23:06:50 42° 67° (ENE) 23:11:03 145.980
CINEMA 3 30 Aug 23:03:09 23:06:22 17° 275° (W) 23:09:32 145.822/145.860
TIGRISAT 30 Aug 23:06:37 23:09:36 17° 87° (E) 23:12:41 435.000
ZACube-1 30 Aug 23:08:18 23:12:34 38° 264° (W) 23:16:54 437.345
Cosmos 2491 30 Aug 23:09:18 23:16:19 27° 281° (W) 23:23:06 435.465 / 435.565
AAUSAT CUBESAT 2 30 Aug 23:09:56 23:12:01 13° 275° (W) 23:13:55 437.432
UWE-3 30 Aug 23:12:11 23:16:16 29° 268° (W) 23:20:22 435.000/436.395/437.385
FUNcube-1 30 Aug 23:14:31 23:18:42 35° 265° (W) 23:22:56 145.935
ANTELSAT 30 Aug 23:22:35 23:26:20 24° 91° (E) 23:30:04 437.575/2403.000
YUBILEINY 30 Aug 23:23:04 23:31:46 60° 289° (WNW) 23:40:31 435.215
Cosmos 2504 30 Aug 23:25:31 23:32:31 33° 82° (E) 23:39:57 435.465 / 435.565
BEESAT 3 30 Aug 23:41:55 23:45:55 51° 40° (NE) 23:49:50 437.485
DELFI C3 30 Aug 23:43:28 23:46:09 16° 272° (W) 23:48:43 145.870
ESTCUBE 1 30 Aug 23:51:30 23:56:00 88° 72° (ENE) 00:00:31 437.505/2401.250
TISAT 1 30 Aug 23:51:38 23:54:38 19° 59° (ENE) 23:57:43 437.305
BEESAT 2 30 Aug 23:51:49 23:55:49 50° 39° (NE) 23:59:46 435.950
DX 1 30 Aug 23:54:11 23:58:22 45° 261° (W) 00:02:34 434.975-435.025
POLYITAN 1 31 Aug 00:03:14 00:06:39 23° 91° (E) 00:10:07 437.675
HUMSAT D 31 Aug 00:06:10 00:09:45 24° 269° (W) 00:13:17 437.325/437.525
POPSAT HIP 1 31 Aug 00:06:22 00:09:51 24° 92° (E) 00:13:22 437.405
DUCHIFAT 1 31 Aug 00:08:08 00:11:37 24° 92° (E) 00:15:07 145.980
UKube-1 31 Aug 00:09:20 00:13:19 36° 263° (W) 00:17:20 .
AISAT 31 Aug 00:10:23 00:14:40 47° 261° (W) 00:18:59 437.250
UNISAT 6 31 Aug 00:13:05 00:17:44 65° 102° (ESE) 00:22:15 437.425
CUBEBUG 1 31 Aug 00:15:16 00:19:34 68° 258° (WSW) 00:23:55 437.445
SPROUT 31 Aug 00:16:23 00:20:30 46° 69° (ENE) 00:24:40 437.525
RS-15 31 Aug 00:17:08 00:28:36 61° 30° (NNE) 00:40:36 29.354- 29.394
AIST 2 31 Aug 00:18:11 00:21:59 31° 30° (NNE) 00:25:44 435.215
AUBIESAT-1 31 Aug 00:18:21 00:22:13 38° 102° (ESE) 00:25:47 437.475
BUGSAT 1 31 Aug 00:22:08 00:25:25 22° 91° (E) 00:28:46 437.445
M-CUBED/EXP-1 PRIME 31 Aug 00:22:11 00:26:16 48° 105° (ESE) 00:30:01 437.505
QB50P2 31 Aug 00:22:42 00:26:38 34° 96° (E) 00:30:35 145.880/145.840
NANOSAT C BR1 31 Aug 00:24:51 00:28:47 34° 96° (E) 00:32:43 145.865
SWISSCUBE 31 Aug 00:27:30 00:29:44 14° 51° (NE) 00:32:07 437.505
50 SAT 31 Aug 00:31:15 00:34:34 25° 267° (W) 00:37:52 437.505
QB50P1 31 Aug 00:37:48 00:41:57 45° 99° (E) 00:46:06 145.935-145.965
VELOX 1 31 Aug 00:39:44 00:43:33 28° 267° (W) 00:47:21 145.980
TIGRISAT 31 Aug 00:42:18 00:46:57 74° 287° (WNW) 00:51:29 435.000
ANTELSAT 31 Aug 00:58:53 01:03:26 52° 291° (WNW) 01:07:49 437.575/2403.000
ITUPSAT 1 31 Aug 01:03:36 01:07:13 22° 58° (ENE) 01:10:56 437.325
CUSAT 1 31 Aug 01:08:13 01:12:15 53° 95° (E) 01:17:41 437.405
Cosmos 2504 31 Aug 01:15:53 01:24:09 73° 285° (WNW) 01:32:48 435.465 / 435.565
BEESAT 3 31 Aug 01:20:09 01:23:39 28° 240° (WSW) 01:27:04 437.485
YUBILEINY 31 Aug 01:24:55 01:31:00 19° 317° (NW) 01:36:50 435.215
TISAT 1 31 Aug 01:25:48 01:30:00 64° 258° (WSW) 01:34:14 437.305
DANDE 31 Aug 01:26:42 01:30:15 47° 94° (E) 01:35:03 436.750
BEESAT 2 31 Aug 01:30:07 01:33:41 29° 240° (WSW) 01:37:11 435.950
ESTCUBE 1 31 Aug 01:31:09 01:33:35 14° 275° (W) 01:35:51 437.505/2401.250
Oscar 19 31 Aug 01:31:13 01:32:29 11° 80° (E) 01:34:02 437.125/150
BEESAT 31 Aug 01:36:42 01:41:06 39° 65° (ENE) 01:45:34 436.000
POLYITAN 1 31 Aug 01:38:37 01:42:50 50° 291° (WNW) 01:46:59 437.675
POPSAT HIP 1 31 Aug 01:41:47 01:45:58 47° 291° (WNW) 01:50:06 437.405
DUCHIFAT 1 31 Aug 01:43:30 01:47:38 47° 292° (WNW) 01:51:45 145.980
UNISAT 6 31 Aug 01:50:32 01:54:06 22° 301° (WNW) 01:57:31 437.425
AUBIESAT-1 31 Aug 01:53:11 01:56:50 29° 304° (NW) 02:00:11 437.475
SPROUT 31 Aug 01:53:15 01:56:48 24° 268° (W) 02:00:20 437.525
AIST 2 31 Aug 01:56:39 02:00:50 62° 232° (SW) 02:04:56 435.215
BUGSAT 1 31 Aug 01:57:01 02:01:10 51° 290° (WNW) 02:05:18 437.445
M-CUBED/EXP-1 PRIME 31 Aug 01:57:18 02:00:48 25° 306° (NW) 02:04:02 437.505
QB50P2 31 Aug 01:58:36 02:02:31 33° 295° (WNW) 02:06:22 145.880/145.840
SO-50 31 Aug 02:00:31 02:04:15 23° 116° (ESE) 02:08:10 436.795
NANOSAT C BR1 31 Aug 02:00:42 02:04:36 33° 295° (WNW) 02:08:26 145.865
SWISSCUBE 31 Aug 02:02:05 02:06:48 67° 70° (ENE) 02:11:33 437.505
PCSat 31 Aug 02:10:06 02:13:12 16° 107° (ESE) 02:16:31 145.827
QB50P1 31 Aug 02:14:00 02:17:37 26° 298° (WNW) 02:21:11 145.935-145.965
GONETS M04 31 Aug 02:16:50 02:22:45 22° 75° (ENE) 02:29:00
TIGRISAT 31 Aug 02:20:28 02:22:56 14° 307° (NW) 02:25:15 435.000
RS-15 31 Aug 02:29:58 02:41:31 66° 238° (WSW) 02:53:28 29.354- 29.394
ANTELSAT 31 Aug 02:38:15 02:39:14 10° 311° (NW) 02:40:01 437.575/2403.000
ITUPSAT 1 31 Aug 02:39:57 02:44:43 67° 258° (WSW) 02:49:30 437.325
JAS-2 31 Aug 02:42:34 02:45:04 12° 72° (ENE) 02:47:52 435.910
CUSAT 1 31 Aug 02:51:36 02:55:23 25° 305° (NW) 03:00:03 437.405
STARS 31 Aug 02:54:03 02:57:42 26° 62° (ENE) 03:01:26 437.465
Oscar 19 31 Aug 03:07:49 03:13:01 64° 101° (ESE) 03:18:12 437.125/150
KKS-1 31 Aug 03:08:38 03:12:57 51° 68° (ENE) 03:17:20 437.445
DANDE 31 Aug 03:10:38 03:13:55 23° 305° (NW) 03:17:56 436.750
Cosmos 2504 31 Aug 03:11:43 03:18:12 23° 311° (NW) 03:24:36 435.465 / 435.565
MOZHAYETS 4 31 Aug 03:14:16 03:16:31 14° 54° (NE) 03:18:56
BEESAT 31 Aug 03:14:39 03:19:01 34° 265° (W) 03:23:22 436.000
AO-7 31 Aug 03:35:20 03:37:57 12° 76° (ENE) 03:41:09 29.400- 29.500
Gurwin Techsat 1B 31 Aug 03:38:40 03:43:44 42° 97° (E) 03:48:47 435.225
SO-50 31 Aug 03:39:29 03:44:22 77° 317° (NW) 03:49:21 436.795
SWISSCUBE 31 Aug 03:41:35 03:45:09 20° 271° (W) 03:48:37 437.505
O/OREOS (USA 219) 31 Aug 03:44:10 03:47:21 18° 37° (NE) 03:50:37 437.305
PCSat 31 Aug 03:50:27 03:55:51 77° 126° (SE) 04:01:20 145.827
Cosmos 2499 31 Aug 03:58:30 04:04:58 26° 77° (ENE) 04:11:53 435.465 / 435.565
ITAMSAT 1 31 Aug 04:03:54 04:09:01 55° 101° (E) 04:14:07 435.822/435.867
GONETS M04 31 Aug 04:09:41 04:18:21 80° 98° (E) 04:27:07
ITUPSAT 1 31 Aug 04:22:36 04:23:39 10° 278° (W) 04:24:27 437.325
JAS-2 31 Aug 04:25:00 04:32:13 55° 97° (E) 04:38:37 435.910
STARS 31 Aug 04:29:39 04:33:56 48° 260° (W) 04:38:16 437.465
RS-15 31 Aug 04:43:51 04:51:58 21° 261° (W) 04:59:38 29.354- 29.394
KKS-1 31 Aug 04:46:14 04:49:53 24° 268° (W) 04:53:28 437.445
Oscar 19 31 Aug 04:47:44 04:52:02 26° 302° (WNW) 04:56:15 437.125/150
MOZHAYETS 4 31 Aug 04:48:26 04:53:03 74° 73° (ENE) 04:57:40
CUBESAT XI-V 31 Aug 05:04:07 05:06:49 16° 56° (NE) 05:09:40 437.345
Gurwin Techsat 1B 31 Aug 05:18:48 05:23:42 37° 297° (WNW) 05:28:32 435.225
SO-50 31 Aug 05:21:22 05:25:37 28° 339° (NNW) 05:29:55 436.795
O/OREOS (USA 219) 31 Aug 05:22:57 05:27:36 78° 60° (ENE) 05:32:12 437.305
AO-7 31 Aug 05:25:05 05:33:10 52° 101° (E) 05:41:13 29.400- 29.500
YUBILEINY 31 Aug 05:34:33 05:35:34 10° 25° (NNE) 05:36:55 435.215
PCSat 31 Aug 05:34:58 05:39:49 32° 328° (NNW) 05:44:41 145.827
HORYU 2 31 Aug 05:41:33 05:46:02 65° 103° (ESE) 05:50:28 437.375
ITAMSAT 1 31 Aug 05:43:50 05:48:18 29° 300° (WNW) 05:52:42 435.822/435.867
Cosmos 2499 31 Aug 05:48:29 05:57:05 87° 98° (E) 06:06:03 435.465 / 435.565
PRISM 31 Aug 06:02:08 06:03:17 11° 53° (NE) 06:04:35 437.425
STRAND 1 31 Aug 06:02:35 06:06:12 20° 55° (NE) 06:09:55 437.568
GONETS M04 31 Aug 06:08:40 06:16:18 32° 303° (WNW) 06:23:52
JAS-2 31 Aug 06:10:16 06:17:07 41° 301° (WNW) 06:23:13 435.910
CUTE-I 31 Aug 06:21:41 06:22:53 11° 80° (E) 06:24:24 437.470
MOZHAYETS 4 31 Aug 06:27:42 06:30:50 17° 273° (W) 06:33:51
CUBESAT XI-V 31 Aug 06:39:03 06:43:39 88° 78° (ENE) 06:48:18 437.345
O/OREOS (USA 219) 31 Aug 07:03:28 07:06:30 17° 259° (WSW) 07:09:23 437.305
SO-50 31 Aug 07:03:51 07:07:36 21° 3° (N) 07:11:23 436.795
Cubesat XI-IV 31 Aug 07:13:55 07:18:30 29° 93° (E) 07:23:07 437.490
AO-7 31 Aug 07:18:06 07:26:04 51° 303° (WNW) 07:33:55 29.400- 29.500
HORYU 2 31 Aug 07:18:53 07:22:16 21° 302° (WNW) 07:25:34 437.375
PCSat 31 Aug 07:21:09 07:24:53 18° 353° (N) 07:28:36 145.827
YUBILEINY 31 Aug 07:28:57 07:36:27 30° 55° (NE) 07:44:04 435.215
BRITE-PL 31 Aug 07:29:03 07:30:06 11° 79° (E) 07:31:30 437.365/2234.400
PRISM 31 Aug 07:33:56 07:38:00 67° 72° (ENE) 07:42:05 437.425
STRAND 1 31 Aug 07:39:45 07:44:52 84° 254° (WSW) 07:50:01 437.568
Cosmos 2499 31 Aug 07:44:02 07:51:32 30° 305° (NW) 07:59:05 435.465 / 435.565
JAS-2 31 Aug 07:56:45 08:00:17 14° 324° (NW) 08:03:27 435.910
CUTE-I 31 Aug 07:58:54 08:04:12 62° 102° (ESE) 08:09:30 437.470
GOMX 1 31 Aug 08:02:27 08:04:49 13° 81° (E) 08:07:28 467.674
GONETS M04 31 Aug 08:15:09 08:17:02 11° 334° (NNW) 08:18:36
CUBESAT XI-V 31 Aug 08:19:16 08:21:50 14° 275° (W) 08:24:15 437.345
DOVE 4 31 Aug 08:21:39 08:23:28 12° 80° (E) 08:25:33 437.250
Cosmos 2491 31 Aug 08:26:44 08:32:37 22° 75° (ENE) 08:38:50 435.465 / 435.565
SO-50 31 Aug 08:45:00 08:49:30 33° 26° (NNE) 08:53:59 436.795
Cubesat XI-IV 31 Aug 08:53:43 08:58:55 54° 293° (WNW) 09:04:05 437.490
Cosmos 2504 31 Aug 09:03:41 09:09:25 19° 45° (NE) 09:15:18 435.465 / 435.565
BRITE-PL 31 Aug 09:04:28 09:09:47 57° 99° (E) 09:15:22 437.365/2234.400
PCSat 31 Aug 09:06:01 09:10:13 22° 19° (NNE) 09:14:27 145.827
PRISM 31 Aug 09:11:19 09:13:55 16° 271° (W) 09:16:24 437.425
AO-7 31 Aug 09:11:38 09:17:09 20° 327° (NNW) 09:22:28 29.400- 29.500
CINEMA 3 31 Aug 09:13:55 09:16:45 15° 83° (E) 09:19:44 145.822/145.860
AIST 1 31 Aug 09:19:30 09:23:44 74° 99° (E) 09:28:01
STRAND 1 31 Aug 09:22:05 09:24:59 15° 276° (W) 09:27:40 437.568
YUBILEINY 31 Aug 09:25:38 09:34:32 85° 262° (W) 09:43:22 435.215
CUTE 1.7 + AOD 2 31 Aug 09:32:36 09:36:11 26° 93° (E) 09:39:47 437.475
AUBIESAT-1 31 Aug 09:36:45 09:40:32 25° 54° (NE) 09:44:17 437.475
HO-68 31 Aug 09:37:42 09:44:20 39° 95° (E) 09:51:00 435.675
GOMX 1 31 Aug 09:38:35 09:43:58 69° 102° (ESE) 09:49:28 467.674
CUTE-I 31 Aug 09:39:32 09:43:59 27° 302° (WNW) 09:48:22 437.470
M-CUBED/EXP-1 PRIME 31 Aug 09:40:43 09:44:50 30° 56° (ENE) 09:48:54 437.505
UNISAT 6 31 Aug 09:42:24 09:45:48 21° 58° (ENE) 09:49:19 437.425
CANX-2 31 Aug 09:46:14 09:50:13 38° 96° (E) 09:54:11 2200.000
Cosmos 2499 31 Aug 09:46:40 09:48:36 11° 335° (NNW) 09:50:14 435.465 / 435.565
CUSAT 1 31 Aug 09:53:52 09:59:24 24° 54° (NE) 10:05:41 437.405
DOVE 4 31 Aug 09:57:02 10:02:19 65° 100° (E) 10:07:37 437.250
PHONESAT 2.4 31 Aug 10:00:12 10:01:02 11° 185° (S) 10:01:53 2401.200-2431.200
QB50P1 31 Aug 10:03:13 10:05:00 13° 54° (NE) 10:06:56 145.935-145.965
SEEDS 31 Aug 10:09:24 10:13:29 47° 98° (E) 10:17:32 437.485
TIGRISAT 31 Aug 10:10:27 10:14:34 32° 63° (ENE) 10:18:46 435.000
Oscar 11 31 Aug 10:10:28 10:13:24 18° 88° (E) 10:16:26 145.826/435.025
DANDE 31 Aug 10:14:47 10:19:59 23° 55° (NE) 10:26:07 436.750
Cosmos 2491 31 Aug 10:19:33 10:28:14 79° 98° (E) 10:36:59 435.465 / 435.565
ISS 31 Aug 10:23:59 10:26:01 16° 144° (SE) 10:28:07 145.825
SO-50 31 Aug 10:25:32 10:30:32 79° 230° (SW) 10:35:26 436.795
ANTELSAT 31 Aug 10:26:44 10:31:11 43° 67° (ENE) 10:35:41 437.575/2403.000
COMPASS 1 31 Aug 10:32:53 10:37:02 64° 101° (ESE) 10:41:09 437.405
Cubesat XI-IV 31 Aug 10:35:38 10:38:01 13° 313° (NW) 10:40:14 437.490
BRITE-PL 31 Aug 10:43:24 10:48:04 31° 298° (WNW) 10:52:52 437.365/2234.400
AAUSAT CUBESAT 2 31 Aug 10:43:55 10:48:05 71° 102° (ESE) 10:52:12 437.432
CUBEBUG 2 31 Aug 10:46:29 10:51:02 43° 97° (E) 10:55:27 437.445
PCSat 31 Aug 10:49:27 10:54:48 55° 43° (NE) 11:00:08 145.827
CINEMA 3 31 Aug 10:49:40 10:54:46 87° 103° (ESE) 10:59:44 145.822/145.860
ZACube-1 31 Aug 10:50:52 10:54:53 30° 93° (E) 10:58:49 437.345
Cosmos 2504 31 Aug 10:55:19 11:03:52 61° 72° (ENE) 11:12:00 435.465 / 435.565
UWE-3 31 Aug 10:55:27 10:59:53 41° 97° (E) 11:04:12 435.000/436.395/437.385
FUNcube-1 31 Aug 10:56:39 11:00:44 32° 94° (E) 11:04:46 145.935
AIST 1 31 Aug 10:59:15 11:01:59 16° 300° (WNW) 11:04:37
POLYITAN 1 31 Aug 11:01:35 11:05:30 36° 66° (ENE) 11:09:30 437.675
AO-7 31 Aug 11:04:28 11:06:43 11° 355° (N) 11:08:56 29.400- 29.500
POPSAT HIP 1 31 Aug 11:04:31 11:08:27 38° 66° (ENE) 11:12:28 437.405
DUCHIFAT 1 31 Aug 11:05:50 11:09:44 37° 66° (ENE) 11:13:43 145.980
CUTE 1.7 + AOD 2 31 Aug 11:08:14 11:12:15 41° 292° (WNW) 11:16:13 437.475
AUBIESAT-1 31 Aug 11:10:11 11:14:55 64° 252° (WSW) 11:19:30 437.475
DELFI C3 31 Aug 11:14:34 11:18:26 45° 98° (E) 11:22:18 145.870
M-CUBED/EXP-1 PRIME 31 Aug 11:14:41 11:19:24 52° 255° (WSW) 11:24:00 437.505
GOMX 1 31 Aug 11:17:18 11:21:42 26° 300° (WNW) 11:26:06 467.674
UNISAT 6 31 Aug 11:17:25 11:22:07 73° 257° (WSW) 11:26:53 437.425
BUGSAT 1 31 Aug 11:17:40 11:21:18 32° 65° (ENE) 11:25:03 437.445
QB50P2 31 Aug 11:20:59 11:25:09 55° 70° (ENE) 11:29:22 145.880/145.840
CANX-2 31 Aug 11:22:20 11:26:03 29° 296° (WNW) 11:29:41 2200.000
NANOSAT C BR1 31 Aug 11:22:44 11:26:52 54° 70° (ENE) 11:31:05 145.865
YUBILEINY 31 Aug 11:23:35 11:30:14 24° 284° (WNW) 11:36:36 435.215
HO-68 31 Aug 11:25:22 11:32:26 58° 297° (WNW) 11:39:26 435.675
DOVE 4 31 Aug 11:35:19 11:39:42 27° 300° (WNW) 11:44:01 437.250
CUSAT 1 31 Aug 11:35:45 11:43:05 75° 74° (ENE) 11:51:22 437.405
QB50P1 31 Aug 11:35:55 11:40:10 73° 73° (ENE) 11:44:28 145.935-145.965
DX 1 31 Aug 11:36:50 11:40:08 21° 91° (E) 11:43:31 434.975-435.025
ESTCUBE 1 31 Aug 11:39:52 11:41:44 13° 84° (E) 11:43:47 437.505/2401.250
HUMSAT D 31 Aug 11:43:15 11:47:16 38° 96° (E) 11:51:14 437.325/437.525
SEEDS 31 Aug 11:45:37 11:49:02 24° 298° (WNW) 11:52:24 437.485
Oscar 11 31 Aug 11:45:45 11:50:03 64° 288° (WNW) 11:54:19 145.826/435.025
TIGRISAT 31 Aug 11:46:43 11:51:12 43° 263° (W) 11:55:43 435.000
UKube-1 31 Aug 11:50:40 11:54:14 25° 93° (E) 11:57:53 .
AISAT 31 Aug 11:55:14 11:58:43 22° 91° (E) 12:02:17 437.250
DANDE 31 Aug 11:57:08 12:04:08 75° 75° (ENE) 12:12:31 436.750
ISS 31 Aug 11:58:48 12:01:57 49° 162° (SSE) 12:05:07 145.825
CUBEBUG 1 31 Aug 11:59:03 12:01:41 16° 87° (E) 12:04:27 437.445
50 SAT 31 Aug 11:59:51 12:03:06 25° 93° (E) 12:06:21 437.505
ANTELSAT 31 Aug 12:03:54 12:08:06 30° 267° (W) 12:12:16 437.575/2403.000
SO-50 31 Aug 12:07:18 12:10:24 16° 248° (WSW) 12:13:17 436.795
COMPASS 1 31 Aug 12:09:21 12:12:19 19° 300° (WNW) 12:15:11 437.405
GONETS M04 31 Aug 12:16:11 12:21:41 18° 42° (NE) 12:27:28
Cosmos 2491 31 Aug 12:18:31 12:26:11 32° 303° (WNW) 12:33:45 435.465 / 435.565
AAUSAT CUBESAT 2 31 Aug 12:20:27 12:23:14 17° 301° (WNW) 12:25:55 437.432
VELOX 1 31 Aug 12:23:19 12:27:28 37° 96° (E) 12:31:39 145.980
CUBEBUG 2 31 Aug 12:23:23 12:27:35 31° 297° (WNW) 12:31:39 437.445
ZACube-1 31 Aug 12:27:03 12:31:21 41° 293° (WNW) 12:35:32 437.345
CINEMA 3 31 Aug 12:27:47 12:31:21 19° 304° (NW) 12:34:46 145.822/145.860
UWE-3 31 Aug 12:32:10 12:36:18 31° 296° (WNW) 12:40:18 435.000/436.395/437.385
FUNcube-1 31 Aug 12:32:54 12:37:07 37° 294° (WNW) 12:41:13 145.935
PCSat 31 Aug 12:33:08 12:38:06 36° 244° (WSW) 12:42:59 145.827
POLYITAN 1 31 Aug 12:37:38 12:41:27 31° 265° (W) 12:45:18 437.675
POPSAT HIP 1 31 Aug 12:40:38 12:44:25 29° 266° (W) 12:48:11 437.405
DUCHIFAT 1 31 Aug 12:41:52 12:45:38 29° 266° (W) 12:49:22 145.980
Cosmos 2504 31 Aug 12:47:58 12:55:48 40° 275° (W) 13:03:12 435.465 / 435.565
AUBIESAT-1 31 Aug 12:49:20 12:50:29 11° 271° (W) 12:51:23 437.475
DELFI C3 31 Aug 12:50:04 12:53:17 23° 298° (WNW) 12:56:24 145.870
AO-7 31 Aug 12:51:48 12:56:02 15° 24° (NNE) 13:00:24 29.400- 29.500
Oscar 19 31 Aug 12:52:21 12:56:48 31° 61° (ENE) 13:01:21 437.125/150
BUGSAT 1 31 Aug 12:53:03 12:56:46 32° 265° (W) 13:00:31 437.445
UNISAT 6 31 Aug 12:58:04 12:59:50 12° 278° (W) 13:01:21 437.425
QB50P2 31 Aug 12:58:07 13:01:24 21° 270° (W) 13:04:36 145.880/145.840
NANOSAT C BR1 31 Aug 12:59:47 13:03:03 21° 270° (W) 13:06:15 145.865
JAS-2 31 Aug 13:00:38 13:05:22 18° 42° (NE) 13:10:15 435.910
TISAT 1 31 Aug 13:05:28 13:07:42 14° 86° (E) 13:10:06 437.305
DX 1 31 Aug 13:12:26 13:16:45 56° 290° (WNW) 13:21:03 434.975-435.025
QB50P1 31 Aug 13:13:55 13:16:35 16° 273° (W) 13:19:08 145.935-145.965
HO-68 31 Aug 13:14:08 13:18:54 19° 319° (NW) 13:23:28 435.675
ESTCUBE 1 31 Aug 13:14:51 13:19:24 85° 107° (ESE) 13:23:54 437.505/2401.250
CUSAT 1 31 Aug 13:18:48 13:25:18 33° 272° (W) 13:32:15 437.405
HUMSAT D 31 Aug 13:19:10 13:22:55 29° 296° (WNW) 13:26:33 437.325/437.525
Oscar 11 31 Aug 13:23:59 13:25:27 11° 307° (NW) 13:26:47 145.826/435.025
UKube-1 31 Aug 13:26:25 13:30:36 46° 292° (WNW) 13:34:45 .
Gurwin Techsat 1B 31 Aug 13:27:30 13:31:36 24° 57° (ENE) 13:35:48 435.225
AISAT 31 Aug 13:31:14 13:35:38 55° 290° (WNW) 13:40:01 437.250
SPROUT 31 Aug 13:32:49 13:36:56 40° 97° (E) 13:41:03 437.525
50 SAT 31 Aug 13:34:06 13:37:44 37° 293° (WNW) 13:41:18 437.505
CUBEBUG 1 31 Aug 13:34:11 13:38:37 77° 288° (WNW) 13:43:02 437.445
ISS 31 Aug 13:35:00 13:38:15 75° 180° (S) 13:41:31 145.825
Cosmos 2499 31 Aug 13:40:22 13:45:34 17° 40° (NE) 13:50:58 435.465 / 435.565
DANDE 31 Aug 13:40:47 13:46:59 32° 271° (W) 13:53:56 436.750
ITAMSAT 1 31 Aug 13:49:39 13:53:58 28° 59° (ENE) 13:58:22 435.822/435.867
SWISSCUBE 31 Aug 13:58:44 13:59:55 11° 82° (E) 14:01:20 437.505
VELOX 1 31 Aug 13:59:58 14:03:59 33° 296° (WNW) 14:07:59 145.980
GONETS M04 31 Aug 14:12:24 14:21:03 57° 70° (ENE) 14:29:43
Cosmos 2491 31 Aug 14:25:02 14:26:55 11° 333° (NNW) 14:28:29 435.465 / 435.565
Oscar 19 31 Aug 14:30:55 14:35:58 52° 260° (W) 14:41:05 437.125/150
ITUPSAT 1 31 Aug 14:35:05 14:38:39 21° 90° (E) 14:42:18 437.325
AO-7 31 Aug 14:39:15 14:46:33 36° 49° (NE) 14:53:57 29.400- 29.500
TISAT 1 31 Aug 14:39:47 14:44:06 81° 285° (WNW) 14:48:22 437.305
JAS-2 31 Aug 14:41:26 14:48:53 52° 64° (ENE) 14:56:23 435.910
DX 1 31 Aug 14:51:04 14:52:09 11° 310° (NW) 14:53:03 434.975-435.025
ESTCUBE 1 31 Aug 14:52:47 14:55:43 17° 304° (WNW) 14:58:33 437.505/2401.250
RS-15 31 Aug 15:00:19 15:01:20 10° 90° (E) 15:03:22 29.354- 29.394
Gurwin Techsat 1B 31 Aug 15:05:49 15:11:08 74° 256° (WSW) 15:16:30 435.225
BEESAT 31 Aug 15:08:15 15:12:45 39° 97° (E) 15:17:13 436.000
SPROUT 31 Aug 15:09:06 15:12:55 29° 296° (WNW) 15:16:39 437.525
AISAT 31 Aug 15:10:15 15:11:19 11° 310° (NW) 15:12:14 437.250
HORYU 2 31 Aug 15:10:20 15:13:37 21° 58° (ENE) 15:17:00 437.375
ISS 31 Aug 15:11:24 15:14:30 41° 202° (SSW) 15:17:36 145.825
CUBEBUG 1 31 Aug 15:12:02 15:14:18 14° 306° (NW) 15:16:26 437.445
BEESAT 3 31 Aug 15:19:44 15:21:09 12° 112° (ESE) 15:22:43 437.485
ITAMSAT 1 31 Aug 15:28:07 15:33:13 57° 259° (WSW) 15:38:21 435.822/435.867
BEESAT 2 31 Aug 15:30:48 15:32:11 12° 112° (ESE) 15:33:45 435.950
Cosmos 2499 31 Aug 15:32:53 15:41:27 51° 67° (ENE) 15:49:34 435.465 / 435.565
SWISSCUBE 31 Aug 15:34:00 15:38:46 70° 103° (ESE) 15:43:31 437.505
GONETS M04 31 Aug 16:09:37 16:17:47 44° 273° (W) 16:25:53
ITUPSAT 1 31 Aug 16:12:16 16:17:00 63° 290° (WNW) 16:21:43 437.325
STARS 31 Aug 16:13:42 16:17:05 21° 90° (E) 16:20:32 437.465
TISAT 1 31 Aug 16:16:59 16:19:13 14° 305° (NW) 16:21:19 437.305
